EW5752 Weather Reports


Display with metric or nautical units.
time (UTC)temp
F
wind
direction
speed
MPH
gust
MPH
rain 1hr
in
rain 24hr
in
rain mn
in
humidity
%
barometer
mb
20260504184604 75 234 0.0 3.0 0.00 0.00 0.00 40 1004.5
20260504184502 74 234 1.0 0.0 0.00 0.00 0.00 38 1004.5
20260504183007 73 234 1.0 0.0 0.00 0.00 0.00 43 1004.5
20260504180243 71 234 1.0 5.0 0.00 0.00 0.00 55 1004.8
20260504175306 71 234 1.0 5.0 0.00 0.00 0.00 46 1004.8
20260504174251 70 234 0.0 2.0 0.00 0.00 0.00 46 1005.0
20260504173219 68 234 0.0 0.0 0.00 0.00 0.00 52 1005.0
20260504173007 68 234 0.0 0.0 0.00 0.00 0.00 54 1005.0
20260504172153 68 234 0.0 0.0 0.00 0.00 0.00 50 1005.3
20260504171504 66 234 0.0 0.0 0.00 0.00 0.00 52 1005.4
20260504171128 66 234 0.0 0.0 0.00 0.00 0.00 56 1005.2
20260504170130 65 234 0.0 0.0 0.00 0.00 0.00 59 1005.2
20260504150553 54 234 0.0 2.0 0.00 0.00 0.00 73 1006.8
20260504130310 53 150 0.0 4.0 0.00 0.00 0.00 68 1005.6
20260504110453 53 182 0.0 0.0 0.00 0.00 0.00 66 1005.8
20260504100426 55 210 0.0 0.0 0.00 0.00 0.00 64 1005.6
20260504100137 55 210 0.0 0.0 0.00 0.00 0.00 63 1005.7
20260504090125 58 246 2.0 0.0 0.00 0.00 0.00 51 1005.6
20260504081508 58 217 0.0 0.0 0.00 0.00 0.00 58 1005.6
20260504081219 59 217 0.0 1.0 0.00 0.00 0.00 57 1005.5
20260504080207 60 233 0.0 0.0 0.00 0.00 0.00 53 1005.5
20260504070305 64 289 3.0 10.0 0.00 0.00 0.00 44 1005.3
20260504050720 68 113 0.0 2.0 0.00 0.00 0.00 39 1005.4
20260504050004 68 120 1.0 0.0 0.00 0.00 0.00 39 1005.5
20260504044621 68 52 1.0 0.0 0.00 0.00 0.00 38 1005.6
20260504044612 69 52 0.0 6.0 0.00 0.00 0.00 38 1005.5
20260504043556 68 339 0.0 5.0 0.00 0.00 0.00 38 1005.6
20260504041513 68 27 0.0 0.0 0.00 0.00 0.00 38 1005.3
20260504041506 68 27 1.0 0.0 0.00 0.00 0.00 38 1005.4
20260504040532 66 230 0.0 1.0 0.00 0.00 0.00 42 1005.5
20260504040012 64 103 0.0 0.0 0.00 0.00 0.00 48 1005.6
20260504035552 65 104 0.0 0.0 0.00 0.00 0.00 51 1005.3
20260504034518 65 104 0.0 0.0 0.00 0.00 0.00 50 1005.3
20260504034506 65 104 1.0 0.0 0.00 0.00 0.00 50 1005.4
20260504033445 65 104 0.0 4.0 0.00 0.00 0.00 49 1005.2
20260504033103 65 104 0.0 0.0 0.00 0.00 0.00 49 1005.2
20260504032456 66 104 0.0 0.0 0.00 0.00 0.00 51 1005.0
20260504031604 66 104 0.0 0.0 0.00 0.00 0.00 51 1005.1
20260504030307 68 104 0.0 0.0 0.00 0.00 0.00 50 1005.3
20260504030002 67 104 0.0 0.0 0.00 0.00 0.00 51 1005.4
20260504025259 69 104 0.0 0.0 0.00 0.00 0.00 48 1005.1
20260504024504 70 104 0.0 0.0 0.00 0.00 0.00 47 1005.1
20260504024229 71 104 0.0 2.0 0.00 0.00 0.00 48 1004.8
20260504023204 74 104 0.0 0.0 0.00 0.00 0.00 44 1004.8
20260504023003 74 104 0.0 0.0 0.00 0.00 0.00 45 1004.9
20260504022157 76 172 0.0 1.0 0.00 0.00 0.00 42 1004.6
20260504021215 77 248 0.0 0.0 0.00 0.00 0.00 38 1004.5
20260504020004 79 248 0.0 0.0 0.00 0.00 0.00 42 1004.5
20260504015102 80 248 0.0 0.0 0.00 0.00 0.00 41 1004.2
20260504014602 81 248 0.0 0.0 0.00 0.00 0.00 38 1004.3
20260504014113 82 248 0.0 0.0 0.00 0.00 0.00 41 1004.4
20260504013115 82 248 0.0 1.0 0.00 0.00 0.00 31 1004.4
20260504013004 82 248 0.0 0.0 0.00 0.00 0.00 28 1004.5
20260504010910 82 248 0.0 2.0 0.00 0.00 0.00 29 1004.3
20260504010004 82 248 1.0 0.0 0.00 0.00 0.00 32 1004.4
20260504005935 83 248 0.0 2.0 0.00 0.00 0.00 35 1004.3
20260504003808 84 248 0.0 0.0 0.00 0.00 0.00 29 1004.7
20260504003007 83 248 0.0 0.0 0.00 0.00 0.00 31 1004.7
20260504002817 83 248 0.0 0.0 0.00 0.00 0.00 29 1004.9
20260504001757 83 250 0.0 2.0 0.00 0.00 0.00 28 1004.9
20260504001608 83 251 0.0 0.0 0.00 0.00 0.00 28 1004.9
20260504000754 83 251 0.0 1.0 0.00 0.00 0.00 29 1004.7
20260504000005 83 288 0.0 0.0 0.00 0.00 0.00 29 1004.7
20260503235752 83 288 0.0 0.0 0.00 0.00 0.00 34 1005.1
20260503234800 82 288 0.0 5.0 0.00 0.00 0.00 33 1005.1
20260503234604 82 256 1.0 0.0 0.00 0.00 0.00 31 1005.2
20260503233754 82 240 0.0 5.0 0.00 0.00 0.00 29 1005.1
20260503233004 82 333 0.0 0.0 0.00 0.00 0.00 32 1005.2
20260503232731 83 344 0.0 0.0 0.00 0.00 0.00 32 1005.5
20260503231748 82 333 0.0 0.0 0.00 0.00 0.00 30 1005.5
20260503231606 81 333 1.0 0.0 0.00 0.00 0.00 31 1005.6
20260503230805 81 325 2.0 2.0 0.00 0.00 0.00 33 1005.9
20260503230133 81 329 2.0 0.0 0.00 0.00 0.00 32 1005.9
20260503224656 83 136 0.0 4.0 0.00 0.00 0.00 30 1006.1
20260503224506 82 137 0.0 0.0 0.00 0.00 0.00 31 1006.2
20260503223010 81 145 1.0 0.0 0.00 0.00 0.00 33 1006.4
20260503222625 81 100 1.0 3.0 0.00 0.00 0.00 31 1006.7
20260503221612 81 257 2.0 7.0 0.00 0.00 0.00 34 1006.7
20260503221503 80 257 3.0 0.0 0.00 0.00 0.00 30 1006.7
20260503220616 81 316 2.0 7.0 0.00 0.00 0.00 34 1006.8
20260503220003 81 312 2.0 0.0 0.00 0.00 0.00 30 1006.8
20260503215621 82 241 1.0 6.0 0.00 0.00 0.00 34 1007.0
20260503214607 81 257 0.0 1.0 0.00 0.00 0.00 35 1007.0
20260503214508 81 260 0.0 0.0 0.00 0.00 0.00 31 1007.0
20260503213602 81 308 0.0 1.0 0.00 0.00 0.00 33 1007.3
20260503213003 80 308 0.0 0.0 0.00 0.00 0.00 32 1007.3
20260503212621 81 309 0.0 6.0 0.00 0.00 0.00 30 1007.5
20260503211604 80 315 1.0 0.0 0.00 0.00 0.00 34 1007.6
20260503210535 79 311 1.0 0.0 0.00 0.00 0.00 35 1007.6
20260503210105 79 260 1.0 0.0 0.00 0.00 0.00 32 1007.6
20260503205533 80 145 0.0 1.0 0.00 0.00 0.00 31 1007.8
20260503204605 79 357 1.0 0.0 0.00 0.00 0.00 32 1007.8
20260503204546 79 357 0.0 6.0 0.00 0.00 0.00 32 1007.8
20260503203537 80 89 0.0 0.0 0.00 0.00 0.00 33 1008.0
20260503203104 80 89 0.0 0.0 0.00 0.00 0.00 32 1008.1
20260503202547 79 0 0.0 1.0 0.00 0.00 0.00 33 1008.1
20260503201517 79 224 0.0 4.0 0.00 0.00 0.00 33 1008.1
20260503201506 78 226 1.0 0.0 0.00 0.00 0.00 33 1008.2
20260503200512 78 219 0.0 0.0 0.00 0.00 0.00 34 1008.5
20260503200104 77 219 1.0 0.0 0.00 0.00 0.00 32 1008.5
20260503195439 77 176 0.0 2.0 0.00 0.00 0.00 37 1008.8
20260503194505 77 176 1.0 0.0 0.00 0.00 0.00 31 1008.9
20260503194416 77 179 0.0 5.0 0.00 0.00 0.00 32 1008.8
20260503193421 76 294 0.0 2.0 0.00 0.00 0.00 32 1009.2
20260503193006 76 301 1.0 0.0 0.00 0.00 0.00 39 1009.2
20260503192444 76 301 0.0 2.0 0.00 0.00 0.00 45 1009.4
20260503191526 75 305 1.0 0.0 0.00 0.00 0.00 44 1009.4
20260503191450 75 305 0.0 5.0 0.00 0.00 0.00 44 1009.4
20260503190434 74 308 0.0 5.0 0.00 0.00 0.00 43 1009.3
20260503190007 73 212 1.0 0.0 0.00 0.00 0.00 44 1009.4
20260503185430 73 212 0.0 3.0 0.00 0.00 0.00 46 1009.7